Terminal Aerodrome Forecast
Issued by NWS Charleston, WV

Current Version | Previous Version | Graphics & Text | Print | Product List | Glossary On
Versions: 1 2 3 4 5 6 7 8 9 10 11 12 13 14 15 16 17 18 19 20 21 22 23 24 25 26 27 28 29
000
FTUS41 KRLX 271700
TAFPKB
TAF
KPKB 271734Z 2718/2818 33006KT P6SM BKN025
     FM280500 33004KT P6SM SCT025
     FM280800 00000KT P6SM SCT200=

USA.gov is the U.S. government's official web portal to all federal, state and local government web resources and services.